A SL-4 rocket body that was launched on the 20th April, 2012, from the Baikonur Cosmodrome, for the Progress M-15M/47P mission re-entered the Earths atmosphere on the 22nd April, 2012 @ 15:03 GMT ± 1 minute.
SL-4 RB 1 38223U 12015B 12112.93888616 +.06267908 +12194-4 +82884-3 0 00121 2 38223 051.6138 043.6664 0020875 100.6572 259.6797 16.33923168000238
Inclination: 51.6°Revolution Number: 34Predicted Location: 46°N, 87°E (XinJiang)